When you browse on this site, cookies collect data to enhance your experience and personalize the content and advertising you see.
Visit our Privacy Policy to learn more. By continuing to use the site, you agree to this use of cookies and data.
  • In United Kingdom
  • List of Countries
  • For 7 days
  • Water Temperature
  • Satellite Maps
  • Weather Map
  • Weather Widgets
  • user-avatar
    Login

    Hourly Weather Shevlevo

    Today, 24 May, Friday

    Time Temperature Precipitation Wind Pressure Humidity
    00:00 +10°C° 0 mm 3 mps 751 mmHg 86%
    01:00 +10°C° 0 mm 3 mps 752 mmHg 87%
    02:00 +9°C° 0 mm 2 mps 752 mmHg 89%
    03:00 +9°C° 0 mm 2 mps 752 mmHg 89%
    04:00 +9°C° 0 mm 2 mps 752 mmHg 89%
    05:00 +9°C° 0 mm 2 mps 752 mmHg 89%
    06:00 +10°C° 0 mm 2 mps 752 mmHg 84%
    07:00 +13°C° 0 mm 2 mps 752 mmHg 79%
    08:00 +15°C° 0 mm 2 mps 752 mmHg 75%
    09:00 +16°C° 0 mm 2 mps 752 mmHg 71%
    10:00 +18°C° 0 mm 2 mps 752 mmHg 67%
    11:00 +20°C° 0 mm 2 mps 752 mmHg 63%
    12:00 +21°C° 0 mm 2 mps 751 mmHg 61%
    13:00 +21°C° 0 mm 2 mps 751 mmHg 59%
    14:00 +23°C° 0 mm 2 mps 751 mmHg 57%
    15:00 +23°C° 0.5 mm 2 mps 750 mmHg 63%
    16:00 +21°C° 0.5 mm 2 mps 750 mmHg 70%
    17:00 +21°C° 0.5 mm 1 mps 750 mmHg 76%
    18:00 +19°C° 2.2 mm 2 mps 750 mmHg 81%
    19:00 +18°C° 2.2 mm 2 mps 749 mmHg 87%
    20:00 +17°C° 2.2 mm 2 mps 749 mmHg 92%
    21:00 +16°C° 0.6 mm 2 mps 749 mmHg 94%
    22:00 +15°C° 0.6 mm 2 mps 749 mmHg 95%
    23:00 +14°C° 0.6 mm 2 mps 749 mmHg 97%

    Tomorrow, 25 May, Saturday

    Time Temperature Precipitation Wind Pressure Humidity
    00:00 +13°C° 0 mm 1 mps 749 mmHg 97%
    01:00 +13°C° 0 mm 1 mps 749 mmHg 97%
    02:00 +12°C° 0 mm 1 mps 749 mmHg 97%
    03:00 +12°C° 0 mm 1 mps 749 mmHg 97%
    04:00 +12°C° 0 mm 1 mps 749 mmHg 98%
    05:00 +12°C° 0 mm 1 mps 748 mmHg 98%
    06:00 +14°C° 0 mm 1 mps 748 mmHg 94%
    07:00 +15°C° 0 mm 1 mps 748 mmHg 90%
    08:00 +18°C° 0 mm 1 mps 748 mmHg 87%
    09:00 +19°C° 0 mm 1 mps 748 mmHg 75%
    10:00 +19°C° 0 mm 2 mps 747 mmHg 64%
    11:00 +20°C° 0 mm 2 mps 747 mmHg 52%
    12:00 +21°C° 0 mm 3 mps 746 mmHg 50%
    13:00 +21°C° 0 mm 3 mps 746 mmHg 48%
    14:00 +22°C° 0 mm 4 mps 745 mmHg 46%
    15:00 +20°C° 0.7 mm 3 mps 745 mmHg 61%
    16:00 +18°C° 0.7 mm 3 mps 745 mmHg 75%
    17:00 +16°C° 0.7 mm 3 mps 745 mmHg 90%
    18:00 +14°C° 0.2 mm 3 mps 745 mmHg 90%
    19:00 +14°C° 0.2 mm 2 mps 745 mmHg 90%
    20:00 +13°C° 0.2 mm 2 mps 745 mmHg 90%
    21:00 +12°C° 0 mm 2 mps 745 mmHg 91%
    22:00 +10°C° 0 mm 2 mps 746 mmHg 91%
    23:00 +8°C° 0 mm 2 mps 746 mmHg 92%

    Day after tomorrow, 26 May, Sunday

    Time Temperature Precipitation Wind Pressure Humidity
    00:00 +8°C° 0 mm 3 mps 746 mmHg 93%
    01:00 +8°C° 0 mm 3 mps 746 mmHg 93%
    02:00 +7°C° 0 mm 3 mps 746 mmHg 94%
    03:00 +8°C° 0 mm 3 mps 746 mmHg 93%
    04:00 +8°C° 0 mm 3 mps 746 mmHg 91%
    05:00 +9°C° 0 mm 3 mps 747 mmHg 90%
    06:00 +10°C° 0 mm 3 mps 747 mmHg 84%
    07:00 +11°C° 0 mm 3 mps 747 mmHg 79%
    08:00 +12°C° 0 mm 3 mps 746 mmHg 73%
    09:00 +14°C° 0 mm 3 mps 746 mmHg 68%
    10:00 +15°C° 0 mm 4 mps 746 mmHg 63%
    11:00 +18°C° 0 mm 4 mps 746 mmHg 58%
    12:00 +17°C° 0.2 mm 5 mps 745 mmHg 57%
    13:00 +19°C° 0.2 mm 5 mps 745 mmHg 56%
    14:00 +19°C° 0.2 mm 6 mps 745 mmHg 54%
    15:00 +19°C° 0 mm 6 mps 745 mmHg 56%
    16:00 +17°C° 0 mm 5 mps 745 mmHg 58%
    17:00 +16°C° 0 mm 5 mps 745 mmHg 59%
    18:00 +14°C° 0.3 mm 5 mps 744 mmHg 70%
    19:00 +12°C° 0.3 mm 4 mps 744 mmHg 81%
    20:00 +10°C° 0.3 mm 3 mps 744 mmHg 91%
    21:00 +10°C° 0.5 mm 4 mps 744 mmHg 92%
    22:00 +8°C° 0.5 mm 4 mps 744 mmHg 93%
    23:00 +8°C° 0.5 mm 4 mps 745 mmHg 94%

    27 May, Monday

    Time Temperature Precipitation Wind Pressure Humidity
    00:00 +7°C° 0 mm 4 mps 745 mmHg 94%
    01:00 +6°C° 0 mm 4 mps 745 mmHg 94%
    02:00 +5°C° 0 mm 4 mps 745 mmHg 94%
    03:00 +5°C° 0 mm 4 mps 745 mmHg 94%
    04:00 +5°C° 0 mm 4 mps 745 mmHg 94%
    05:00 +5°C° 0 mm 4 mps 746 mmHg 94%
    06:00 +6°C° 0 mm 5 mps 746 mmHg 88%
    07:00 +8°C° 0 mm 5 mps 746 mmHg 81%
    08:00 +9°C° 0 mm 6 mps 746 mmHg 75%
    09:00 +10°C° 0 mm 5 mps 747 mmHg 72%
    10:00 +10°C° 0 mm 5 mps 747 mmHg 70%
    11:00 +12°C° 0 mm 5 mps 748 mmHg 67%
    12:00 +13°C° 0 mm 5 mps 748 mmHg 63%
    13:00 +14°C° 0 mm 5 mps 748 mmHg 59%
    14:00 +16°C° 0 mm 5 mps 748 mmHg 55%
    15:00 +15°C° 0 mm 4 mps 748 mmHg 62%
    16:00 +14°C° 0 mm 4 mps 748 mmHg 70%
    17:00 +13°C° 0 mm 3 mps 748 mmHg 77%
    18:00 +13°C° 0.4 mm 3 mps 748 mmHg 84%
    19:00 +12°C° 0.4 mm 3 mps 748 mmHg 90%
    20:00 +13°C° 0.4 mm 2 mps 747 mmHg 97%
    21:00 +13°C° 0.2 mm 2 mps 747 mmHg 97%
    22:00 +13°C° 0.2 mm 2 mps 747 mmHg 98%
    23:00 +13°C° 0.2 mm 2 mps 747 mmHg 98%

    28 May, Tuesday

    Time Temperature Precipitation Wind Pressure Humidity
    00:00 +13°C° 0.1 mm 2 mps 747 mmHg 98%
    01:00 +13°C° 0.1 mm 2 mps 747 mmHg 98%
    02:00 +13°C° 0.1 mm 2 mps 748 mmHg 98%
    03:00 +13°C° 0 mm 2 mps 748 mmHg 98%
    04:00 +13°C° 0 mm 2 mps 748 mmHg 98%
    05:00 +13°C° 0 mm 2 mps 748 mmHg 98%
    06:00 +14°C° 0 mm 2 mps 749 mmHg 92%
    07:00 +14°C° 0 mm 3 mps 749 mmHg 87%
    08:00 +16°C° 0 mm 3 mps 749 mmHg 82%
    09:00 +17°C° 0 mm 3 mps 750 mmHg 73%
    10:00 +18°C° 0 mm 3 mps 750 mmHg 64%
    11:00 +19°C° 0 mm 4 mps 750 mmHg 55%
    12:00 +20°C° 0 mm 3 mps 750 mmHg 53%
    13:00 +21°C° 0 mm 3 mps 751 mmHg 50%
    14:00 +21°C° 0 mm 3 mps 751 mmHg 48%
    15:00 +21°C° 0 mm 2 mps 751 mmHg 51%
    16:00 +22°C° 0 mm 1 mps 751 mmHg 55%
    17:00 +21°C° 0 mm 1 mps 751 mmHg 58%
    18:00 +20°C° 0.1 mm 1 mps 751 mmHg 65%
    19:00 +18°C° 0.1 mm 1 mps 751 mmHg 72%
    20:00 +16°C° 0.1 mm 1 mps 751 mmHg 79%
    21:00 +15°C° 0.1 mm 1 mps 751 mmHg 81%
    22:00 +15°C° 0.1 mm 1 mps 751 mmHg 83%
    23:00 +14°C° 0.1 mm 1 mps 751 mmHg 86%

    29 May, Wednesday

    Time Temperature Precipitation Wind Pressure Humidity
    00:00 +14°C° 0.2 mm 1 mps 751 mmHg 89%
    01:00 +14°C° 0.2 mm 1 mps 751 mmHg 91%
    02:00 +14°C° 0.2 mm 1 mps 751 mmHg 94%
    03:00 +14°C° 0 mm 2 mps 751 mmHg 94%
    04:00 +14°C° 0 mm 2 mps 750 mmHg 95%
    05:00 +14°C° 0 mm 2 mps 750 mmHg 95%
    06:00 +14°C° 3.5 mm 2 mps 750 mmHg 96%
    07:00 +15°C° 3.5 mm 2 mps 749 mmHg 97%
    08:00 +15°C° 3.5 mm 2 mps 749 mmHg 98%
    09:00 +16°C° 3.4 mm 2 mps 749 mmHg 98%
    10:00 +16°C° 3.4 mm 2 mps 748 mmHg 97%
    11:00 +17°C° 3.4 mm 3 mps 748 mmHg 97%
    12:00 +18°C° 1.4 mm 3 mps 748 mmHg 96%
    13:00 +19°C° 1.4 mm 2 mps 747 mmHg 95%
    14:00 +20°C° 1.4 mm 2 mps 747 mmHg 94%
    15:00 +20°C° 0.7 mm 3 mps 747 mmHg 92%
    16:00 +20°C° 0.7 mm 3 mps 747 mmHg 90%
    17:00 +21°C° 0.7 mm 4 mps 747 mmHg 88%
    18:00 +19°C° 0 mm 4 mps 747 mmHg 90%
    19:00 +17°C° 0 mm 3 mps 748 mmHg 91%
    20:00 +14°C° 0 mm 3 mps 748 mmHg 92%
    21:00 +14°C° 0 mm 3 mps 748 mmHg 94%
    22:00 +13°C° 0 mm 3 mps 749 mmHg 95%
    23:00 +12°C° 0 mm 3 mps 749 mmHg 97%
    Show more